owner,sensor,date,latitude,longitude,air_pressure(mBar),qcFlag 
COMPS,ioos:station:USF.COMPS:C10:1,2015-03-01T00:05:00Z,27.1690,-82.9260,1023.12,1111122 
COMPS,ioos:station:USF.COMPS:C10:1,2015-03-01T00:35:00Z,27.1690,-82.9260,1023.25,1111122 
COMPS,ioos:station:USF.COMPS:C10:1,2015-03-01T01:05:00Z,27.1690,-82.9260,1023.62,1111122 
COMPS,ioos:station:USF.COMPS:C10:1,2015-03-01T01:35:00Z,27.1690,-82.9260,1024.0,1111122 
COMPS,ioos:station:USF.COMPS:C10:1,2015-03-01T02:05:00Z,27.1690,-82.9260,1024.43,1111122 
COMPS,ioos:station:USF.COMPS:C10:1,2015-03-01T02:35:00Z,27.1690,-82.9260,1024.67,1111122 
COMPS,ioos:station:USF.COMPS:C10:1,2015-03-01T03:05:00Z,27.1690,-82.9260,1024.68,1111122 
COMPS,ioos:station:USF.COMPS:C10:1,2015-03-01T03:35:00Z,27.1690,-82.9260,1024.82,1111122 
COMPS,ioos:station:USF.COMPS:C10:1,2015-03-01T04:05:00Z,27.1690,-82.9260,1024.75,1111122 
COMPS,ioos:station:USF.COMPS:C10:1,2015-03-01T04:35:00Z,27.1690,-82.9260,1024.67,1111122 
COMPS,ioos:station:USF.COMPS:C10:1,2015-03-01T05:05:00Z,27.1690,-82.9260,1024.33,1111122 
COMPS,ioos:station:USF.COMPS:C10:1,2015-03-01T05:35:00Z,27.1690,-82.9260,1024.23,1111122 
COMPS,ioos:station:USF.COMPS:C10:1,2015-03-01T06:05:00Z,27.1690,-82.9260,1024.01,1111122 
COMPS,ioos:station:USF.COMPS:C10:1,2015-03-01T06:35:00Z,27.1690,-82.9260,1023.75,1111122 
COMPS,ioos:station:USF.COMPS:C10:1,2015-03-01T07:05:00Z,27.1690,-82.9260,1023.52,1111122 
COMPS,ioos:station:USF.COMPS:C10:1,2015-03-01T07:35:00Z,27.1690,-82.9260,1023.45,1111122 
COMPS,ioos:station:USF.COMPS:C10:1,2015-03-01T08:05:00Z,27.1690,-82.9260,1023.0,1111122 
COMPS,ioos:station:USF.COMPS:C10:1,2015-03-01T08:35:00Z,27.1690,-82.9260,1022.86,1111122 
COMPS,ioos:station:USF.COMPS:C10:1,2015-03-01T09:05:00Z,27.1690,-82.9260,1022.89,1111122 
COMPS,ioos:station:USF.COMPS:C10:1,2015-03-01T09:35:00Z,27.1690,-82.9260,1022.86,1111122 
COMPS,ioos:station:USF.COMPS:C10:1,2015-03-01T10:05:00Z,27.1690,-82.9260,1023.33,1111122 
COMPS,ioos:station:USF.COMPS:C10:1,2015-03-01T10:35:00Z,27.1690,-82.9260,1023.65,1111122 
COMPS,ioos:station:USF.COMPS:C10:1,2015-03-01T11:05:00Z,27.1690,-82.9260,1023.77,1111122 
COMPS,ioos:station:USF.COMPS:C10:1,2015-03-01T11:35:00Z,27.1690,-82.9260,1024.03,1111122 
COMPS,ioos:station:USF.COMPS:C10:1,2015-03-01T12:05:00Z,27.1690,-82.9260,1024.27,1111122 
COMPS,ioos:station:USF.COMPS:C10:1,2015-03-01T12:35:00Z,27.1690,-82.9260,1024.66,1111122 
COMPS,ioos:station:USF.COMPS:C10:1,2015-03-01T13:05:00Z,27.1690,-82.9260,1025.14,1111122 
COMPS,ioos:station:USF.COMPS:C10:1,2015-03-01T13:35:00Z,27.1690,-82.9260,1025.4,1111122 
COMPS,ioos:station:USF.COMPS:C10:1,2015-03-01T14:05:00Z,27.1690,-82.9260,1025.52,1111122 
COMPS,ioos:station:USF.COMPS:C10:1,2015-03-01T14:35:00Z,27.1690,-82.9260,1025.77,1111122 
COMPS,ioos:station:USF.COMPS:C10:1,2015-03-01T15:05:00Z,27.1690,-82.9260,1026.0,1111122 
COMPS,ioos:station:USF.COMPS:C10:1,2015-03-01T15:35:00Z,27.1690,-82.9260,1026.14,1111122 
COMPS,ioos:station:USF.COMPS:C10:1,2015-03-01T16:05:00Z,27.1690,-82.9260,1026.07,1111122 
COMPS,ioos:station:USF.COMPS:C10:1,2015-03-01T16:35:00Z,27.1690,-82.9260,1025.72,1111122 
COMPS,ioos:station:USF.COMPS:C10:1,2015-03-01T17:05:00Z,27.1690,-82.9260,1025.46,1111122 
COMPS,ioos:station:USF.COMPS:C10:1,2015-03-01T17:35:00Z,27.1690,-82.9260,1025.04,1111122 
COMPS,ioos:station:USF.COMPS:C10:1,2015-03-01T18:05:00Z,27.1690,-82.9260,1024.56,1111122 
COMPS,ioos:station:USF.COMPS:C10:1,2015-03-01T18:35:00Z,27.1690,-82.9260,1024.16,1111122 
COMPS,ioos:station:USF.COMPS:C10:1,2015-03-01T19:05:00Z,27.1690,-82.9260,1023.62,1111122 
COMPS,ioos:station:USF.COMPS:C10:1,2015-03-01T19:35:00Z,27.1690,-82.9260,1023.48,1111122 
COMPS,ioos:station:USF.COMPS:C10:1,2015-03-01T20:05:00Z,27.1690,-82.9260,1023.21,1111122 
COMPS,ioos:station:USF.COMPS:C10:1,2015-03-01T20:35:00Z,27.1690,-82.9260,1022.88,1111122 
COMPS,ioos:station:USF.COMPS:C10:1,2015-03-01T22:05:00Z,27.1690,-82.9260,1022.29,1111122 
COMPS,ioos:station:USF.COMPS:C10:1,2015-03-01T22:35:00Z,27.1690,-82.9260,1022.43,1111122 
COMPS,ioos:station:USF.COMPS:C10:1,2015-03-01T23:05:00Z,27.1690,-82.9260,1022.62,1111122 
COMPS,ioos:station:USF.COMPS:C10:1,2015-03-01T23:35:00Z,27.1690,-82.9260,1022.75,1111122 
COMPS,ioos:station:USF.COMPS:C10:1,2015-03-02T00:05:00Z,27.1690,-82.9260,1022.84,1111122 
COMPS,ioos:station:USF.COMPS:C10:1,2015-03-02T00:35:00Z,27.1690,-82.9260,1023.05,1111122 
COMPS,ioos:station:USF.COMPS:C10:1,2015-03-02T01:05:00Z,27.1690,-82.9260,1023.31,1111122 
COMPS,ioos:station:USF.COMPS:C10:1,2015-03-02T01:35:00Z,27.1690,-82.9260,1023.45,1111122 
COMPS,ioos:station:USF.COMPS:C10:1,2015-03-02T02:05:00Z,27.1690,-82.9260,1023.84,1111122 
COMPS,ioos:station:USF.COMPS:C10:1,2015-03-02T02:35:00Z,27.1690,-82.9260,1024.06,1111122 
COMPS,ioos:station:USF.COMPS:C10:1,2015-03-02T03:05:00Z,27.1690,-82.9260,1024.22,1111122 
COMPS,ioos:station:USF.COMPS:C10:1,2015-03-02T03:35:00Z,27.1690,-82.9260,1024.32,1111122 
COMPS,ioos:station:USF.COMPS:C10:1,2015-03-02T04:05:00Z,27.1690,-82.9260,1024.33,1111122 
COMPS,ioos:station:USF.COMPS:C10:1,2015-03-02T04:35:00Z,27.1690,-82.9260,1024.31,1111122 
COMPS,ioos:station:USF.COMPS:C10:1,2015-03-02T05:05:00Z,27.1690,-82.9260,1024.16,1111122 
COMPS,ioos:station:USF.COMPS:C10:1,2015-03-02T05:35:00Z,27.1690,-82.9260,1023.8,1111122 
COMPS,ioos:station:USF.COMPS:C10:1,2015-03-02T06:05:00Z,27.1690,-82.9260,1023.59,1111122 
COMPS,ioos:station:USF.COMPS:C10:1,2015-03-02T06:35:00Z,27.1690,-82.9260,1023.37,1111122 
COMPS,ioos:station:USF.COMPS:C10:1,2015-03-02T07:05:00Z,27.1690,-82.9260,1023.0,1111122 
COMPS,ioos:station:USF.COMPS:C10:1,2015-03-02T07:35:00Z,27.1690,-82.9260,1022.91,1111122 
COMPS,ioos:station:USF.COMPS:C10:1,2015-03-02T08:05:00Z,27.1690,-82.9260,1022.64,1111122 
COMPS,ioos:station:USF.COMPS:C10:1,2015-03-02T08:35:00Z,27.1690,-82.9260,1022.51,1111122 
COMPS,ioos:station:USF.COMPS:C10:1,2015-03-02T09:05:00Z,27.1690,-82.9260,1022.64,1111122 
COMPS,ioos:station:USF.COMPS:C10:1,2015-03-02T09:35:00Z,27.1690,-82.9260,1022.76,1111122 
COMPS,ioos:station:USF.COMPS:C10:1,2015-03-02T10:05:00Z,27.1690,-82.9260,1022.77,1111122 
COMPS,ioos:station:USF.COMPS:C10:1,2015-03-02T10:35:00Z,27.1690,-82.9260,1022.9,1111122 
COMPS,ioos:station:USF.COMPS:C10:1,2015-03-02T11:05:00Z,27.1690,-82.9260,1023.2,1111122 
COMPS,ioos:station:USF.COMPS:C10:1,2015-03-02T11:35:00Z,27.1690,-82.9260,1023.39,1111122 
COMPS,ioos:station:USF.COMPS:C10:1,2015-03-02T12:05:00Z,27.1690,-82.9260,1023.52,1111122 
COMPS,ioos:station:USF.COMPS:C10:1,2015-03-02T12:35:00Z,27.1690,-82.9260,1023.66,1111122 
COMPS,ioos:station:USF.COMPS:C10:1,2015-03-02T13:05:00Z,27.1690,-82.9260,1023.79,1111122 
COMPS,ioos:station:USF.COMPS:C10:1,2015-03-02T13:35:00Z,27.1690,-82.9260,1023.93,1111122 
COMPS,ioos:station:USF.COMPS:C10:1,2015-03-02T14:05:00Z,27.1690,-82.9260,1024.04,1111122 
COMPS,ioos:station:USF.COMPS:C10:1,2015-03-02T14:35:00Z,27.1690,-82.9260,1024.15,1111122 
COMPS,ioos:station:USF.COMPS:C10:1,2015-03-02T15:05:00Z,27.1690,-82.9260,1024.22,1111122 
COMPS,ioos:station:USF.COMPS:C10:1,2015-03-02T15:35:00Z,27.1690,-82.9260,1024.1,1111122 
COMPS,ioos:station:USF.COMPS:C10:1,2015-03-02T16:05:00Z,27.1690,-82.9260,1024.04,1111122 
COMPS,ioos:station:USF.COMPS:C10:1,2015-03-02T16:35:00Z,27.1690,-82.9260,1024.01,1111122 
COMPS,ioos:station:USF.COMPS:C10:1,2015-03-02T17:05:00Z,27.1690,-82.9260,1023.68,1111122 
COMPS,ioos:station:USF.COMPS:C10:1,2015-03-02T17:35:00Z,27.1690,-82.9260,1023.24,1111122 
COMPS,ioos:station:USF.COMPS:C10:1,2015-03-02T18:05:00Z,27.1690,-82.9260,1022.88,1111122 
COMPS,ioos:station:USF.COMPS:C10:1,2015-03-02T18:35:00Z,27.1690,-82.9260,1022.35,1111122 
COMPS,ioos:station:USF.COMPS:C10:1,2015-03-02T19:05:00Z,27.1690,-82.9260,1021.99,1111122 
COMPS,ioos:station:USF.COMPS:C10:1,2015-03-02T19:35:00Z,27.1690,-82.9260,1021.71,1111122 
COMPS,ioos:station:USF.COMPS:C10:1,2015-03-02T20:05:00Z,27.1690,-82.9260,1021.46,1111122 
COMPS,ioos:station:USF.COMPS:C10:1,2015-03-02T20:35:00Z,27.1690,-82.9260,1021.05,1111122 
COMPS,ioos:station:USF.COMPS:C10:1,2015-03-02T21:05:00Z,27.1690,-82.9260,1021.01,1111122 
COMPS,ioos:station:USF.COMPS:C10:1,2015-03-02T21:35:00Z,27.1690,-82.9260,1020.96,1111122 
COMPS,ioos:station:USF.COMPS:C10:1,2015-03-02T22:05:00Z,27.1690,-82.9260,1020.83,1111122 
COMPS,ioos:station:USF.COMPS:C10:1,2015-03-02T22:35:00Z,27.1690,-82.9260,1020.73,1111122 
COMPS,ioos:station:USF.COMPS:C10:1,2015-03-02T23:05:00Z,27.1690,-82.9260,1020.72,1111122 
COMPS,ioos:station:USF.COMPS:C10:1,2015-03-02T23:35:00Z,27.1690,-82.9260,1020.74,1111122 
COMPS,ioos:station:USF.COMPS:C10:1,2015-03-03T00:05:00Z,27.1690,-82.9260,1021.03,1111122 
COMPS,ioos:station:USF.COMPS:C10:1,2015-03-03T00:35:00Z,27.1690,-82.9260,1021.11,1111122 
COMPS,ioos:station:USF.COMPS:C10:1,2015-03-03T01:05:00Z,27.1690,-82.9260,1021.38,1111122 
COMPS,ioos:station:USF.COMPS:C10:1,2015-03-03T01:35:00Z,27.1690,-82.9260,1021.65,1111122 
COMPS,ioos:station:USF.COMPS:C10:1,2015-03-03T02:05:00Z,27.1690,-82.9260,1021.7,1111122 
COMPS,ioos:station:USF.COMPS:C10:1,2015-03-03T02:35:00Z,27.1690,-82.9260,1021.71,1111122 
COMPS,ioos:station:USF.COMPS:C10:1,2015-03-03T03:05:00Z,27.1690,-82.9260,1021.76,1111122 
COMPS,ioos:station:USF.COMPS:C10:1,2015-03-03T03:35:00Z,27.1690,-82.9260,1021.76,1111122 
COMPS,ioos:station:USF.COMPS:C10:1,2015-03-03T04:05:00Z,27.1690,-82.9260,1021.63,1111122 
COMPS,ioos:station:USF.COMPS:C10:1,2015-03-03T04:35:00Z,27.1690,-82.9260,1021.61,1111122 
COMPS,ioos:station:USF.COMPS:C10:1,2015-03-03T05:05:00Z,27.1690,-82.9260,1021.36,1111122 
COMPS,ioos:station:USF.COMPS:C10:1,2015-03-03T05:35:00Z,27.1690,-82.9260,1021.16,1111122 
COMPS,ioos:station:USF.COMPS:C10:1,2015-03-03T06:05:00Z,27.1690,-82.9260,1020.91,1111122 
COMPS,ioos:station:USF.COMPS:C10:1,2015-03-03T06:35:00Z,27.1690,-82.9260,1020.67,1111122 
COMPS,ioos:station:USF.COMPS:C10:1,2015-03-03T07:05:00Z,27.1690,-82.9260,1020.6,1111122 
COMPS,ioos:station:USF.COMPS:C10:1,2015-03-03T07:35:00Z,27.1690,-82.9260,1020.12,1111122 
COMPS,ioos:station:USF.COMPS:C10:1,2015-03-03T08:05:00Z,27.1690,-82.9260,1019.94,1111122 
COMPS,ioos:station:USF.COMPS:C10:1,2015-03-03T08:35:00Z,27.1690,-82.9260,1019.67,1111122 
COMPS,ioos:station:USF.COMPS:C10:1,2015-03-03T09:05:00Z,27.1690,-82.9260,1019.67,1111122 
COMPS,ioos:station:USF.COMPS:C10:1,2015-03-03T09:35:00Z,27.1690,-82.9260,1019.64,1111122 
COMPS,ioos:station:USF.COMPS:C10:1,2015-03-03T10:05:00Z,27.1690,-82.9260,1019.87,1111122 
COMPS,ioos:station:USF.COMPS:C10:1,2015-03-03T10:35:00Z,27.1690,-82.9260,1019.99,1111122 
COMPS,ioos:station:USF.COMPS:C10:1,2015-03-03T11:05:00Z,27.1690,-82.9260,1020.2,1111122 
COMPS,ioos:station:USF.COMPS:C10:1,2015-03-03T11:35:00Z,27.1690,-82.9260,1020.39,1111122 
COMPS,ioos:station:USF.COMPS:C10:1,2015-03-03T12:05:00Z,27.1690,-82.9260,1020.55,1111122 
COMPS,ioos:station:USF.COMPS:C10:1,2015-03-03T12:35:00Z,27.1690,-82.9260,1020.63,1111122 
COMPS,ioos:station:USF.COMPS:C10:1,2015-03-03T13:05:00Z,27.1690,-82.9260,1020.82,1111122 
COMPS,ioos:station:USF.COMPS:C10:1,2015-03-03T13:35:00Z,27.1690,-82.9260,1021.03,1111122 
COMPS,ioos:station:USF.COMPS:C10:1,2015-03-03T14:05:00Z,27.1690,-82.9260,1021.3,1111122 
COMPS,ioos:station:USF.COMPS:C10:1,2015-03-03T14:35:00Z,27.1690,-82.9260,1021.65,1111122 
COMPS,ioos:station:USF.COMPS:C10:1,2015-03-03T15:05:00Z,27.1690,-82.9260,1021.87,1111122 
COMPS,ioos:station:USF.COMPS:C10:1,2015-03-03T15:35:00Z,27.1690,-82.9260,1021.55,1111122 
COMPS,ioos:station:USF.COMPS:C10:1,2015-03-03T16:05:00Z,27.1690,-82.9260,1021.43,1111122 
COMPS,ioos:station:USF.COMPS:C10:1,2015-03-03T16:35:00Z,27.1690,-82.9260,1021.48,1111122 
COMPS,ioos:station:USF.COMPS:C10:1,2015-03-03T17:05:00Z,27.1690,-82.9260,1021.11,1111122 
COMPS,ioos:station:USF.COMPS:C10:1,2015-03-03T17:35:00Z,27.1690,-82.9260,1020.4,1111122 
COMPS,ioos:station:USF.COMPS:C10:1,2015-03-03T18:05:00Z,27.1690,-82.9260,1019.99,1111122 
COMPS,ioos:station:USF.COMPS:C10:1,2015-03-03T18:35:00Z,27.1690,-82.9260,1019.23,1111122 
COMPS,ioos:station:USF.COMPS:C10:1,2015-03-03T19:05:00Z,27.1690,-82.9260,1019.06,1111122 
COMPS,ioos:station:USF.COMPS:C10:1,2015-03-03T19:35:00Z,27.1690,-82.9260,1018.57,1111122 
COMPS,ioos:station:USF.COMPS:C10:1,2015-03-03T20:05:00Z,27.1690,-82.9260,1018.09,1111122 
COMPS,ioos:station:USF.COMPS:C10:1,2015-03-03T20:35:00Z,27.1690,-82.9260,1017.91,1111122 
COMPS,ioos:station:USF.COMPS:C10:1,2015-03-03T21:05:00Z,27.1690,-82.9260,1017.57,1111122 
COMPS,ioos:station:USF.COMPS:C10:1,2015-03-03T21:35:00Z,27.1690,-82.9260,1017.57,1111122 
COMPS,ioos:station:USF.COMPS:C10:1,2015-03-03T22:05:00Z,27.1690,-82.9260,1017.51,1111122 
COMPS,ioos:station:USF.COMPS:C10:1,2015-03-03T22:35:00Z,27.1690,-82.9260,1017.69,1111122 
COMPS,ioos:station:USF.COMPS:C10:1,2015-03-03T23:05:00Z,27.1690,-82.9260,1017.82,1111122 
COMPS,ioos:station:USF.COMPS:C10:1,2015-03-03T23:35:00Z,27.1690,-82.9260,1017.91,1111122 
COMPS,ioos:station:USF.COMPS:C10:1,2015-03-04T00:05:00Z,27.1690,-82.9260,1018.07,1111122 
COMPS,ioos:station:USF.COMPS:C10:1,2015-03-04T00:35:00Z,27.1690,-82.9260,1018.24,1111122 
COMPS,ioos:station:USF.COMPS:C10:1,2015-03-04T01:05:00Z,27.1690,-82.9260,1018.37,1111122 
COMPS,ioos:station:USF.COMPS:C10:1,2015-03-04T01:35:00Z,27.1690,-82.9260,1018.71,1111122 
COMPS,ioos:station:USF.COMPS:C10:1,2015-03-04T02:05:00Z,27.1690,-82.9260,1018.72,1111122 
COMPS,ioos:station:USF.COMPS:C10:1,2015-03-04T02:35:00Z,27.1690,-82.9260,1018.92,1111122 
COMPS,ioos:station:USF.COMPS:C10:1,2015-03-04T03:05:00Z,27.1690,-82.9260,1019.08,1111122 
COMPS,ioos:station:USF.COMPS:C10:1,2015-03-04T03:35:00Z,27.1690,-82.9260,1019.2,1111122 
COMPS,ioos:station:USF.COMPS:C10:1,2015-03-04T04:05:00Z,27.1690,-82.9260,1019.12,1111122 
COMPS,ioos:station:USF.COMPS:C10:1,2015-03-04T04:35:00Z,27.1690,-82.9260,1019.01,1111122 
COMPS,ioos:station:USF.COMPS:C10:1,2015-03-04T05:05:00Z,27.1690,-82.9260,1018.79,1111122 
COMPS,ioos:station:USF.COMPS:C10:1,2015-03-04T05:35:00Z,27.1690,-82.9260,1018.49,1111122 
COMPS,ioos:station:USF.COMPS:C10:1,2015-03-04T06:05:00Z,27.1690,-82.9260,1018.38,1111122 
COMPS,ioos:station:USF.COMPS:C10:1,2015-03-04T06:35:00Z,27.1690,-82.9260,1018.1,1111122 
COMPS,ioos:station:USF.COMPS:C10:1,2015-03-04T07:05:00Z,27.1690,-82.9260,1017.94,1111122 
COMPS,ioos:station:USF.COMPS:C10:1,2015-03-04T07:35:00Z,27.1690,-82.9260,1017.44,1111122 
COMPS,ioos:station:USF.COMPS:C10:1,2015-03-04T08:05:00Z,27.1690,-82.9260,1017.44,1111122 
COMPS,ioos:station:USF.COMPS:C10:1,2015-03-04T08:35:00Z,27.1690,-82.9260,1017.38,1111122 
COMPS,ioos:station:USF.COMPS:C10:1,2015-03-04T09:05:00Z,27.1690,-82.9260,1017.17,1111122 
COMPS,ioos:station:USF.COMPS:C10:1,2015-03-04T09:35:00Z,27.1690,-82.9260,1017.3,1111122 
COMPS,ioos:station:USF.COMPS:C10:1,2015-03-04T10:05:00Z,27.1690,-82.9260,1017.3,1111122 
COMPS,ioos:station:USF.COMPS:C10:1,2015-03-04T10:35:00Z,27.1690,-82.9260,1017.37,1111122 
COMPS,ioos:station:USF.COMPS:C10:1,2015-03-04T11:05:00Z,27.1690,-82.9260,1017.45,1111122 
COMPS,ioos:station:USF.COMPS:C10:1,2015-03-04T11:35:00Z,27.1690,-82.9260,1017.78,1111122 
COMPS,ioos:station:USF.COMPS:C10:1,2015-03-04T12:05:00Z,27.1690,-82.9260,1018.13,1111122 
COMPS,ioos:station:USF.COMPS:C10:1,2015-03-04T12:35:00Z,27.1690,-82.9260,1018.46,1111122 
COMPS,ioos:station:USF.COMPS:C10:1,2015-03-04T13:05:00Z,27.1690,-82.9260,1018.78,1111122 
COMPS,ioos:station:USF.COMPS:C10:1,2015-03-04T13:35:00Z,27.1690,-82.9260,1018.94,1111122 
COMPS,ioos:station:USF.COMPS:C10:1,2015-03-04T14:05:00Z,27.1690,-82.9260,1019.29,1111122 
COMPS,ioos:station:USF.COMPS:C10:1,2015-03-04T14:35:00Z,27.1690,-82.9260,1019.5,1111122 
COMPS,ioos:station:USF.COMPS:C10:1,2015-03-04T15:05:00Z,27.1690,-82.9260,1019.57,1111122 
COMPS,ioos:station:USF.COMPS:C10:1,2015-03-04T15:35:00Z,27.1690,-82.9260,1019.49,1111122 
COMPS,ioos:station:USF.COMPS:C10:1,2015-03-04T16:05:00Z,27.1690,-82.9260,1019.43,1111122 
COMPS,ioos:station:USF.COMPS:C10:1,2015-03-04T16:35:00Z,27.1690,-82.9260,1019.26,1111122 
COMPS,ioos:station:USF.COMPS:C10:1,2015-03-04T17:05:00Z,27.1690,-82.9260,1018.99,1111122 
COMPS,ioos:station:USF.COMPS:C10:1,2015-03-04T17:35:00Z,27.1690,-82.9260,1018.69,1111122 
COMPS,ioos:station:USF.COMPS:C10:1,2015-03-04T18:05:00Z,27.1690,-82.9260,1018.26,1111122 
COMPS,ioos:station:USF.COMPS:C10:1,2015-03-04T18:35:00Z,27.1690,-82.9260,1017.85,1111122 
COMPS,ioos:station:USF.COMPS:C10:1,2015-03-04T19:05:00Z,27.1690,-82.9260,1017.69,1111122 
COMPS,ioos:station:USF.COMPS:C10:1,2015-03-04T19:35:00Z,27.1690,-82.9260,1017.32,1111122 
COMPS,ioos:station:USF.COMPS:C10:1,2015-03-04T20:05:00Z,27.1690,-82.9260,1016.92,1111122 
COMPS,ioos:station:USF.COMPS:C10:1,2015-03-04T20:35:00Z,27.1690,-82.9260,1016.82,1111122 
COMPS,ioos:station:USF.COMPS:C10:1,2015-03-04T21:05:00Z,27.1690,-82.9260,1016.62,1111122 
COMPS,ioos:station:USF.COMPS:C10:1,2015-03-04T21:35:00Z,27.1690,-82.9260,1016.5,1111122 
COMPS,ioos:station:USF.COMPS:C10:1,2015-03-04T22:05:00Z,27.1690,-82.9260,1016.51,1111122 
COMPS,ioos:station:USF.COMPS:C10:1,2015-03-04T22:35:00Z,27.1690,-82.9260,1016.51,1111122 
COMPS,ioos:station:USF.COMPS:C10:1,2015-03-04T23:05:00Z,27.1690,-82.9260,1016.39,1111122 
COMPS,ioos:station:USF.COMPS:C10:1,2015-03-04T23:35:00Z,27.1690,-82.9260,1016.19,1111122 
COMPS,ioos:station:USF.COMPS:C10:1,2015-03-05T00:05:00Z,27.1690,-82.9260,1016.19,1111122 
COMPS,ioos:station:USF.COMPS:C10:1,2015-03-05T00:35:00Z,27.1690,-82.9260,1016.38,1111122 
COMPS,ioos:station:USF.COMPS:C10:1,2015-03-05T01:05:00Z,27.1690,-82.9260,1016.44,1111122 
COMPS,ioos:station:USF.COMPS:C10:1,2015-03-05T01:35:00Z,27.1690,-82.9260,1016.69,1111122 
COMPS,ioos:station:USF.COMPS:C10:1,2015-03-05T02:05:00Z,27.1690,-82.9260,1016.84,1111122 
COMPS,ioos:station:USF.COMPS:C10:1,2015-03-05T02:35:00Z,27.1690,-82.9260,1016.87,1111122 
COMPS,ioos:station:USF.COMPS:C10:1,2015-03-05T03:05:00Z,27.1690,-82.9260,1016.91,1111122 
COMPS,ioos:station:USF.COMPS:C10:1,2015-03-05T03:35:00Z,27.1690,-82.9260,1016.9,1111122 
COMPS,ioos:station:USF.COMPS:C10:1,2015-03-05T04:05:00Z,27.1690,-82.9260,1016.9,1111122 
COMPS,ioos:station:USF.COMPS:C10:1,2015-03-05T04:35:00Z,27.1690,-82.9260,1016.9,1111122 
COMPS,ioos:station:USF.COMPS:C10:1,2015-03-05T05:05:00Z,27.1690,-82.9260,1016.64,1111122 
COMPS,ioos:station:USF.COMPS:C10:1,2015-03-05T05:35:00Z,27.1690,-82.9260,1016.42,1111122 
COMPS,ioos:station:USF.COMPS:C10:1,2015-03-05T06:05:00Z,27.1690,-82.9260,1016.28,1111122 
COMPS,ioos:station:USF.COMPS:C10:1,2015-03-05T06:35:00Z,27.1690,-82.9260,1016.04,1111122 
COMPS,ioos:station:USF.COMPS:C10:1,2015-03-05T07:05:00Z,27.1690,-82.9260,1015.81,1111122 
COMPS,ioos:station:USF.COMPS:C10:1,2015-03-05T07:35:00Z,27.1690,-82.9260,1015.54,1111122 
COMPS,ioos:station:USF.COMPS:C10:1,2015-03-05T08:05:00Z,27.1690,-82.9260,1015.21,1111122 
COMPS,ioos:station:USF.COMPS:C10:1,2015-03-05T08:35:00Z,27.1690,-82.9260,1015.13,1111122 
COMPS,ioos:station:USF.COMPS:C10:1,2015-03-05T09:05:00Z,27.1690,-82.9260,1015.01,1111122 
COMPS,ioos:station:USF.COMPS:C10:1,2015-03-05T09:35:00Z,27.1690,-82.9260,1014.96,1111122 
COMPS,ioos:station:USF.COMPS:C10:1,2015-03-05T10:05:00Z,27.1690,-82.9260,1015.14,1111122 
COMPS,ioos:station:USF.COMPS:C10:1,2015-03-05T10:35:00Z,27.1690,-82.9260,1015.29,1111122 
COMPS,ioos:station:USF.COMPS:C10:1,2015-03-05T11:05:00Z,27.1690,-82.9260,1015.74,1111122 
COMPS,ioos:station:USF.COMPS:C10:1,2015-03-05T11:35:00Z,27.1690,-82.9260,1016.06,1111122 
COMPS,ioos:station:USF.COMPS:C10:1,2015-03-05T12:05:00Z,27.1690,-82.9260,1016.49,1111122 
COMPS,ioos:station:USF.COMPS:C10:1,2015-03-05T12:35:00Z,27.1690,-82.9260,1016.99,1111122 
COMPS,ioos:station:USF.COMPS:C10:1,2015-03-05T13:05:00Z,27.1690,-82.9260,1017.5,1111122 
COMPS,ioos:station:USF.COMPS:C10:1,2015-03-05T13:35:00Z,27.1690,-82.9260,1017.89,1111122 
COMPS,ioos:station:USF.COMPS:C10:1,2015-03-05T14:05:00Z,27.1690,-82.9260,1018.44,1111122 
COMPS,ioos:station:USF.COMPS:C10:1,2015-03-05T14:35:00Z,27.1690,-82.9260,1018.55,1111122 
COMPS,ioos:station:USF.COMPS:C10:1,2015-03-05T15:05:00Z,27.1690,-82.9260,1018.78,1111122 
COMPS,ioos:station:USF.COMPS:C10:1,2015-03-05T15:35:00Z,27.1690,-82.9260,1018.91,1111122 
COMPS,ioos:station:USF.COMPS:C10:1,2015-03-05T16:05:00Z,27.1690,-82.9260,1018.84,1111122 
COMPS,ioos:station:USF.COMPS:C10:1,2015-03-05T16:35:00Z,27.1690,-82.9260,1018.92,1111122 
COMPS,ioos:station:USF.COMPS:C10:1,2015-03-05T17:05:00Z,27.1690,-82.9260,1018.85,1111122 
COMPS,ioos:station:USF.COMPS:C10:1,2015-03-05T17:35:00Z,27.1690,-82.9260,1018.54,1111122 
COMPS,ioos:station:USF.COMPS:C10:1,2015-03-05T18:05:00Z,27.1690,-82.9260,1018.13,1111122 
COMPS,ioos:station:USF.COMPS:C10:1,2015-03-05T18:35:00Z,27.1690,-82.9260,1017.91,1111122 
COMPS,ioos:station:USF.COMPS:C10:1,2015-03-05T19:05:00Z,27.1690,-82.9260,1017.61,1111122 
COMPS,ioos:station:USF.COMPS:C10:1,2015-03-05T19:35:00Z,27.1690,-82.9260,1017.65,1111122 
COMPS,ioos:station:USF.COMPS:C10:1,2015-03-05T20:05:00Z,27.1690,-82.9260,1017.53,1111122 
COMPS,ioos:station:USF.COMPS:C10:1,2015-03-05T20:35:00Z,27.1690,-82.9260,1017.36,1111122 
COMPS,ioos:station:USF.COMPS:C10:1,2015-03-05T21:05:00Z,27.1690,-82.9260,1017.22,1111122 
COMPS,ioos:station:USF.COMPS:C10:1,2015-03-05T21:35:00Z,27.1690,-82.9260,1017.22,1111122 
COMPS,ioos:station:USF.COMPS:C10:1,2015-03-05T22:05:00Z,27.1690,-82.9260,1017.22,1111122 
COMPS,ioos:station:USF.COMPS:C10:1,2015-03-05T22:35:00Z,27.1690,-82.9260,1017.48,1111122 
COMPS,ioos:station:USF.COMPS:C10:1,2015-03-05T23:05:00Z,27.1690,-82.9260,1017.7,1111122 
COMPS,ioos:station:USF.COMPS:C10:1,2015-03-05T23:35:00Z,27.1690,-82.9260,1017.78,1111122 
COMPS,ioos:station:USF.COMPS:C10:1,2015-03-06T00:05:00Z,27.1690,-82.9260,1017.91,1111122 
COMPS,ioos:station:USF.COMPS:C10:1,2015-03-06T00:35:00Z,27.1690,-82.9260,1018.15,1111122 
COMPS,ioos:station:USF.COMPS:C10:1,2015-03-06T01:05:00Z,27.1690,-82.9260,1018.46,1111122 
COMPS,ioos:station:USF.COMPS:C10:1,2015-03-06T01:35:00Z,27.1690,-82.9260,1018.77,1111122 
COMPS,ioos:station:USF.COMPS:C10:1,2015-03-06T02:05:00Z,27.1690,-82.9260,1019.01,1111122 
COMPS,ioos:station:USF.COMPS:C10:1,2015-03-06T02:35:00Z,27.1690,-82.9260,1019.2,1111122 
COMPS,ioos:station:USF.COMPS:C10:1,2015-03-06T03:05:00Z,27.1690,-82.9260,1019.51,1111122 
COMPS,ioos:station:USF.COMPS:C10:1,2015-03-06T03:35:00Z,27.1690,-82.9260,1019.66,1111122 
COMPS,ioos:station:USF.COMPS:C10:1,2015-03-06T04:05:00Z,27.1690,-82.9260,1019.28,1111122 
COMPS,ioos:station:USF.COMPS:C10:1,2015-03-06T04:35:00Z,27.1690,-82.9260,1019.2,1111122 
COMPS,ioos:station:USF.COMPS:C10:1,2015-03-06T05:05:00Z,27.1690,-82.9260,1019.13,1111122 
COMPS,ioos:station:USF.COMPS:C10:1,2015-03-06T05:35:00Z,27.1690,-82.9260,1018.99,1111122 
COMPS,ioos:station:USF.COMPS:C10:1,2015-03-06T07:05:00Z,27.1690,-82.9260,1018.42,1111122 
COMPS,ioos:station:USF.COMPS:C10:1,2015-03-06T07:35:00Z,27.1690,-82.9260,1018.31,1111122 
COMPS,ioos:station:USF.COMPS:C10:1,2015-03-06T08:05:00Z,27.1690,-82.9260,1018.3,1111122 
COMPS,ioos:station:USF.COMPS:C10:1,2015-03-06T08:35:00Z,27.1690,-82.9260,1018.18,1111122 
COMPS,ioos:station:USF.COMPS:C10:1,2015-03-06T09:05:00Z,27.1690,-82.9260,1018.32,1111122 
COMPS,ioos:station:USF.COMPS:C10:1,2015-03-06T09:35:00Z,27.1690,-82.9260,1018.45,1111122 
COMPS,ioos:station:USF.COMPS:C10:1,2015-03-06T10:05:00Z,27.1690,-82.9260,1018.64,1111122 
COMPS,ioos:station:USF.COMPS:C10:1,2015-03-06T10:35:00Z,27.1690,-82.9260,1019.0,1111122 
COMPS,ioos:station:USF.COMPS:C10:1,2015-03-06T11:05:00Z,27.1690,-82.9260,1019.24,1111122 
COMPS,ioos:station:USF.COMPS:C10:1,2015-03-06T11:35:00Z,27.1690,-82.9260,1019.66,1111122 
COMPS,ioos:station:USF.COMPS:C10:1,2015-03-06T12:05:00Z,27.1690,-82.9260,1020.06,1111122 
COMPS,ioos:station:USF.COMPS:C10:1,2015-03-06T12:35:00Z,27.1690,-82.9260,1020.18,1111122 
COMPS,ioos:station:USF.COMPS:C10:1,2015-03-06T13:05:00Z,27.1690,-82.9260,1020.61,1111122 
COMPS,ioos:station:USF.COMPS:C10:1,2015-03-06T13:35:00Z,27.1690,-82.9260,1020.98,1111122 
COMPS,ioos:station:USF.COMPS:C10:1,2015-03-06T14:05:00Z,27.1690,-82.9260,1021.09,1111122 
COMPS,ioos:station:USF.COMPS:C10:1,2015-03-06T14:35:00Z,27.1690,-82.9260,1021.13,1111122 